Regional Weather Roundup
Issued by NWS Sioux Falls, SD

Home | Current Version | Previous Version | Graphics & Text | Print | Product List | Glossary On
Versions: 1 2 3 4 5 6 7 8 9 10 11 12 13 14 15 16 17 18 19 20 21 22 23 24 25 26 27 28 29 30 31 32 33 34 35 36 37 38 39 40 41 42 43 44 45 46 47 48 49 50
000
ASUS43 KFSD 221702
RWRFSD

WEATHER ROUNDUP FOR SE SOUTH DAKOTA/SW MINNESOTA/NW IOWA
NATIONAL WEATHER SERVICE SIOUX FALLS SD
1100 AM CST THU FEB 22 2018

NOTE: "FAIR" INDICATES FEW OR NO CLOUDS BELOW 12,000 FEET WITH NO
SIGNIFICANT WEATHER AND OR OBSTRUCTIONS TO VISIBILITY.


SDZ038>040-050-052>070-221800-
SOUTHEAST SOUTH DAKOTA

CITY           SKY/WX    TMP DP  RH WIND       PRES   REMARKS
BROOKINGS      CLOUDY    20  16  84 E9        30.39F WCI   9
CHAMBERLAIN    CLOUDY    23  20  87 E13       30.33S WCI  12
HURON          CLOUDY    21  16  81 SE10      30.38F WCI  10
MADISON        PTSUNNY   21  21 100 E9        30.37F WCI  11
MITCHELL       PTSUNNY   23  17  78 SE12      30.40S WCI  12
SIOUX FALLS    CLOUDY    22  17  81 E10       30.40F WCI  11
WINNER         LGT SNOW  23  17  78 S15       30.29S WCI  10
YANKTON        CLOUDY    21  17  84 E10       30.40R WCI  10
$$

MNZ071-072-080-081-089-090-097-098-221800-
SOUTHWEST MINNESOTA

CITY           SKY/WX    TMP DP  RH WIND       PRES   REMARKS
FAIRMONT       CLOUDY    23  19  85 E9        30.47F WCI  13
JACKSON        CLOUDY    19  18  93 NE8       30.43F WCI   9
LUVERNE        CLOUDY    21  18  86 E9        30.42F WCI  11
MARSHALL       FLURRIES  19  13  77 SE9       30.47F WCI   8
MONTEVIDEO     CLOUDY    19  12  73 S10       30.49F WCI   8
PIPESTONE      CLOUDY    21  18  86 SE9       30.39F WCI  11
REDWOOD FALLS  LGT SNOW  18  14  84 SE7       30.50F FOG     WCI   9
TRACY          CLOUDY    20  18  89 E5        30.45F WCI  14
WORTHINGTON    CLOUDY    21  17  84 E8        30.42F WCI  11
$$

IAZ001>003-012>014-020>022-031-032-NEZ013-014-SDZ071-221800-
NORTHWEST IOWA

CITY           SKY/WX    TMP DP  RH WIND       PRES   REMARKS
CHEROKEE       CLOUDY    26  21  80 E9        30.41F WCI  17
DENISON        CLOUDY    25  23  93 E9        30.40S WCI  15
ESTHERVILLE    CLOUDY    21  19  92 E14       30.42F WCI   8
LE MARS        CLOUDY    27  19  74 E10       30.41R WCI  17
ORANGE CITY    CLOUDY    27  21  80 E7        30.40S WCI  19
SHELDON        CLOUDY    23  21  93 E9        30.39F WCI  13
SIOUX CITY     CLOUDY    25  20  81 E8        30.40F WCI  16
SPENCER        MIX PCPN  26  21  81 E9        30.42F WCI  17
STORM LAKE     CLOUDY    25  19  80 E16       30.38F WCI  12
$$

ABBREVIATIONS USED IN REMARKS
   TC - TEMPERATURE IN CELSIUS
  WCI - WIND CHILL INDEX
   HX - HEAT INDEX
  VSB - VISIBILITY





USA.gov is the U.S. government's official web portal to all federal, state and local government web resources and services.